Printer-friendly version
Follow the MPC on Twitter Follow the MPC on Facebook The MPC blog
Minor Planet Center

MPEC 2010-J14 : 2010 JA

The following Minor Planet Electronic Circular may be linked-to from your own Web pages, but must not otherwise be redistributed electronically.

A form allowing access to any MPEC is at the bottom of this page.


Read MPEC 2010-J13 Read MPEC 2010-J15


M.P.E.C. 2010-J14                                Issued 2010 May 4, 12:00 UT

     The Minor Planet Electronic Circulars contain information on unusual
         minor planets and routine data on comets.  They are published
   on behalf of Commission 20 of the International Astronomical Union by the
          Minor Planet Center, Smithsonian Astrophysical Observatory,
                          Cambridge, MA 02138, U.S.A.

             Prepared using the Tamkin Foundation Computer Network

                              MPC@CFA.HARVARD.EDU
       URL http://www.minorplanetcenter.org/iau/mpc.html  ISSN 1523-6714

                                    2010 JA

Observations:
     K10J00A* C2010 05 04.24557 13 53 47.65 -10 52 45.0          19.3 V EJ014703
     K10J00A  C2010 05 04.25183 13 53 45.81 -10 51 41.4          19.7 V EJ014703
     K10J00A  C2010 05 04.25821 13 53 43.83 -10 50 36.0          19.4 V EJ014703
     K10J00A  C2010 05 04.26460 13 53 41.96 -10 49 31.4          19.4 V EJ014703
     K10J00A  C2010 05 04.29559613 53 24.79 -10 44 36.9          19.4 V EJ014H21
     K10J00A  C2010 05 04.29839213 53 24.05 -10 44 07.3          19.5 V EJ014H21
     K10J00A  C2010 05 04.30159413 53 23.08 -10 43 34.3          19.6 V EJ014H21
     K10J00A  C2010 05 04.30417 13 53 30.01 -10 42 41.2          19.6 V EJ014703
     K10J00A  C2010 05 04.30554 13 53 29.65 -10 42 25.7          18.8 V EJ014703
     K10J00A  C2010 05 04.30624 13 53 29.54 -10 42 21.0          18.8 V EJ014703
     K10J00A  C2010 05 04.32909 13 53 22.58 -10 38 17.4          19.4 R EJ014854
     K10J00A  C2010 05 04.33401 13 53 21.16 -10 37 23.3          19.4 R EJ014854
     K10J00A  C2010 05 04.33707 13 53 20.12 -10 36 52.3          19.7 V EJ014703
     K10J00A  C2010 05 04.33777 13 53 19.83 -10 36 45.1          19.8 V EJ014703
     K10J00A  C2010 05 04.33846 13 53 19.74 -10 36 36.8          19.4 V EJ014703

Observer details:
703 Catalina Sky Survey.  Observer A. Boattini.  Measurers J. D. Ahern,
    E. C. Beshore, A. Boattini, G. J. Garradd, A. R. Gibbs, A. D. Grauer,
    R. E. Hill, R. A. Kowalski, S. M. Larson, R. H. McNaught.  0.68-m Schmidt
    + CCD.
854 Sabino Canyon Observatory, Tucson.  Observer J. E. McGaha.  0.36-m f/10.0
    Schmidt-Cassegrain + CCD.
H21 Astronomical Research Observatory, Westfield.  Observer R. Holmes.
    Measurer S. Foglia.

Orbital elements:
2010 JA                                                  Earth MOID = 0.0041 AU
Epoch 2010 July 23.0 TT = JDT 2455400.5                 MPC
M  13.85794              (2000.0)            P               Q
n   0.76374466     Peri.   75.67855     +0.47027711     +0.88201558
a   1.1853245      Node   222.41517     -0.82576935     +0.42787287
e   0.2674430      Incl.    2.53208     -0.31135900     +0.19741662
P   1.29           H   27.0           G   0.15           U   9
Residuals in seconds of arc
100504 703  0.2-  0.5-    100504 H21  0.4+  0.9+    100504 854  0.3+  0.7-
100504 703  0.2+  0.2-    100504 H21  1.1-  0.0     100504 854  1.0+  0.8+
100504 703  0.9-  0.4+    100504 703  0.1-  0.1-    100504 703  0.6-  0.3-
100504 703  0.2-  0.2-    100504 703  0.7+  1.1+    100504 703  1.9-  0.6-
100504 H21  0.1+  0.9+    100504 703  2.2+  1.6-    100504 703  0.2-  0.2+

Ephemeris:
2010 JA                  a,e,i = 1.19, 0.27, 3                   q = 0.8683
Date    TT    R. A. (2000) Decl.     Delta      r     Elong.  Phase     V
2010 05 04.0  13 54.31   -11 27.9    0.0222   1.030   167.3    12.4    19.5
2010 05 04.5  13 53.07   -10 02.5    0.0200   1.028   166.0    13.8    19.4
2010 05 05.0  13 51.55   -08 16.3    0.0178   1.026   164.3    15.4    19.2
2010 05 05.5  13 49.64   -06 01.0    0.0157   1.024   162.2    17.5    19.0
2010 05 06.0  13 47.15   -03 03.4    0.0136   1.021   159.4    20.3    18.7
2010 05 06.5  13 43.80   +00 58.4    0.0115   1.019   155.5    24.2    18.5
2010 05 07.0  13 39.00   +06 42.3    0.00956  1.017   150.0    29.7    18.2
2010 05 07.5  13 31.60   +15 15.6    0.00773  1.015   141.6    38.1    18.0
2010 05 08.0  13 18.69   +28 30.1    0.00619  1.013   128.5    51.2    17.9
2010 05 08.5  12 50.71   +48 16.0    0.00518  1.011   108.5    71.2    18.1
2010 05 09.0  11 15.22   +71 04.9    0.00505  1.009    83.6    96.1    19.0
2010 05 09.5  05 34.24   +76 07.9    0.00585  1.007    61.9   117.8    20.5
2010 05 10.0  03 28.38   +64 33.4    0.00727  1.005    47.2   132.5    22.3

Timothy B. Spahr             (C) Copyright 2010 MPC           M.P.E.C. 2010-J14

Read MPEC 2010-J13 Read MPEC 2010-J15


MPEC number:

Enter an MPEC number in one of the following forms:

  • 1997-B01 (the full form)
  • J97B01 (the packed version of the full form)
  • B01 (the abbreviated form)

Valid HTML 4.01!